This is the latest recevied weather packets stored in our database for station/object CQ0XVC-11. If no packets are shown the sender has not sent any weather packets the latest 10 day(s).
| Time | Temp. | Humidity | Pressure | Rain* | Wind** | Luminosity | Snow |
|---|---|---|---|---|---|---|---|
| 1777830443 | 15.56° C | 52% | 1000.6 hPa | 0 mm | - | - | - |
| 1777830174 | 15.56° C | 53% | 1000.8 hPa | 0 mm | - | - | - |
| 1777830142 | 15.56° C | 53% | 1000.8 hPa | 0 mm | - | - | - |
| 1777829839 | 15.56° C | 54% | 1000.7 hPa | 0 mm | - | - | - |
| 1777829537 | 15.56° C | 53% | 1000.7 hPa | 0 mm | - | - | - |
| 1777829270 | 15.56° C | 53% | 1000.6 hPa | 0 mm | - | - | - |
| 1777829235 | 15.56° C | 53% | 1000.6 hPa | 0 mm | - | - | - |
| 1777828965 | 16.11° C | 54% | 1000.6 hPa | 0 mm | - | - | - |
| 1777828933 | 16.11° C | 54% | 1000.6 hPa | 0 mm | - | - | - |
| 1777828630 | 16.11° C | 53% | 1000.6 hPa | 0 mm | - | - | - |
| 1777828329 | 16.11° C | 54% | 1000.5 hPa | 0 mm | - | - | - |
| 1777828026 | 16.67° C | 53% | 1000.6 hPa | 0 mm | - | - | - |
| 1777827759 | 16.67° C | 53% | 1000.3 hPa | 0 mm | - | - | - |
| 1777827724 | 16.67° C | 53% | 1000.3 hPa | 0 mm | - | - | - |
| 1777827469 | 16.67° C | 55% | 1000.3 hPa | 0 mm | - | - | - |
| 1777827422 | 16.67° C | 55% | 1000.3 hPa | 0 mm | - | - | - |
| 1777827155 | 16.11° C | 56% | 1000.3 hPa | 0 mm | - | - | - |
| 1777827120 | 16.11° C | 56% | 1000.3 hPa | 0 mm | - | - | - |
| 1777826817 | 16.11° C | 57% | 1000.2 hPa | 0 mm | - | - | - |
| 1777826563 | 15.56° C | 57% | 1000.2 hPa | 0 mm | - | - | - |
| 1777826516 | 15.56° C | 57% | 1000.2 hPa | 0 mm | - | - | - |
| 1777826213 | 15.56° C | 61% | 1000.3 hPa | 0 mm | - | - | - |
| 1777825952 | 15.56° C | 68% | 1000.3 hPa | 0 mm | - | - | - |
| 1777825911 | 15.56° C | 68% | 1000.3 hPa | 0 mm | - | - | - |
| 1777825639 | 15.56° C | 69% | 1000.3 hPa | 0 mm | - | - | - |
* Rain since midnight (hover to see other rain measurements)
** Current wind speed in m/s (hover to see current wind gust speed)